ROA216 SCEL-SCFA

Flight info

Callsign ROA216
Flight time 1h 40m
Altitude 32000
Route DONTI5B DONTI UQ802 LONEK LONEK2A
Aircraft A320/M-SDE3FGHIRWY/LB1

Departure

Time 2026-04-24 00:57
Airport Comodoro Arturo Merino Benítez International Airport (SCEL)

Arrival

Time 2026-04-24 02:38
Airport Andrés Sabella Gálvez International Airport (SCFA)
Time Latitude Longitude Altitude Speed Heading
2026-04-24 00:34 -33.39742 -70.79827 1565 ft 0 kts 357°
2026-04-24 00:45 -33.39745 -70.79827 1565 ft 3 kts 357°
2026-04-24 00:45 -33.39769 -70.79826 1565 ft 3 kts 357°
2026-04-24 00:45 -33.39793 -70.79824 1565 ft 3 kts 357°
2026-04-24 00:46 -33.39814 -70.79823 1565 ft 3 kts 349°
2026-04-24 00:46 -33.39834 -70.79813 1565 ft 3 kts 303°
2026-04-24 00:46 -33.39840 -70.79788 1565 ft 3 kts 270°
2026-04-24 00:46 -33.39840 -70.79779 1565 ft 0 kts 268°
2026-04-24 00:49 -33.39840 -70.79781 1565 ft 2 kts 268°
2026-04-24 00:49 -33.39842 -70.79831 1565 ft 10 kts 267°
2026-04-24 00:49 -33.39845 -70.79912 1565 ft 7 kts 268°
2026-04-24 00:50 -33.39846 -70.79988 1566 ft 8 kts 270°
2026-04-24 00:50 -33.39792 -70.80028 1566 ft 13 kts 356°
2026-04-24 00:50 -33.39683 -70.80034 1566 ft 18 kts 358°
2026-04-24 00:50 -33.39541 -70.80042 1566 ft 23 kts 358°
2026-04-24 00:51 -33.39370 -70.80052 1566 ft 24 kts 357°
2026-04-24 00:51 -33.39216 -70.80060 1566 ft 22 kts 356°
2026-04-24 00:51 -33.39060 -70.80071 1567 ft 21 kts 356°
2026-04-24 00:51 -33.38922 -70.80078 1567 ft 20 kts 357°
2026-04-24 00:52 -33.38786 -70.80086 1567 ft 18 kts 357°
2026-04-24 00:52 -33.38672 -70.80092 1567 ft 15 kts 358°
2026-04-24 00:52 -33.38572 -70.80097 1567 ft 14 kts 357°
2026-04-24 00:52 -33.38461 -70.80103 1567 ft 18 kts 358°
2026-04-24 00:53 -33.38321 -70.80109 1566 ft 22 kts 357°
2026-04-24 00:53 -33.38163 -70.80120 1566 ft 23 kts 358°
2026-04-24 00:53 -33.37999 -70.80128 1566 ft 24 kts 357°
2026-04-24 00:53 -33.37828 -70.80136 1566 ft 25 kts 358°
2026-04-24 00:54 -33.37652 -70.80146 1566 ft 26 kts 358°
2026-04-24 00:54 -33.37471 -70.80155 1566 ft 26 kts 357°
2026-04-24 00:54 -33.37308 -70.80163 1567 ft 17 kts 357°
2026-04-24 00:54 -33.37219 -70.80168 1567 ft 12 kts 357°
2026-04-24 00:55 -33.37146 -70.80183 1567 ft 10 kts 335°
2026-04-24 00:55 -33.37109 -70.80233 1568 ft 8 kts 293°
2026-04-24 00:55 -33.37107 -70.80303 1573 ft 9 kts 257°
2026-04-24 00:55 -33.37151 -70.80370 1574 ft 11 kts 206°
2026-04-24 00:56 -33.37212 -70.80373 1573 ft 0 kts 176°
2026-04-24 00:56 -33.37284 -70.80369 1573 ft 40 kts 177°
2026-04-24 00:56 -33.37795 -70.80341 1572 ft 105 kts 177°
2026-04-24 00:56 -33.38704 -70.80293 1575 ft 154 kts 178°
2026-04-24 00:57 -33.39884 -70.80234 1842 ft 175 kts 176°
2026-04-24 00:57 -33.41127 -70.80163 2388 ft 186 kts 176°
2026-04-24 00:57 -33.44041 -70.79984 2943 ft 235 kts 176°
2026-04-24 00:58 -33.45754 -70.79881 3414 ft 255 kts 176°
2026-04-24 00:58 -33.47560 -70.79788 4144 ft 264 kts 180°
2026-04-24 00:58 -33.49330 -70.80310 4884 ft 272 kts 210°
2026-04-24 00:58 -33.50702 -70.81877 5643 ft 278 kts 240°
2026-04-24 00:59 -33.51271 -70.84070 6460 ft 279 kts 270°
2026-04-24 00:59 -33.50922 -70.86341 7254 ft 279 kts 291°
2026-04-24 00:59 -33.50269 -70.88535 8083 ft 281 kts 291°
2026-04-24 00:59 -33.49601 -70.90751 8750 ft 285 kts 291°
2026-04-24 01:00 -33.48928 -70.92982 8954 ft 285 kts 291°
2026-04-24 01:00 -33.48247 -70.95225 9547 ft 286 kts 293°
2026-04-24 01:00 -33.47242 -70.97272 10376 ft 286 kts 310°
2026-04-24 01:00 -33.45773 -70.98876 11101 ft 288 kts 327°
2026-04-24 01:01 -33.43955 -70.99908 11795 ft 294 kts 340°
2026-04-24 01:01 -33.41934 -71.00707 12029 ft 317 kts 341°
2026-04-24 01:01 -33.39772 -71.01548 12326 ft 333 kts 341°
2026-04-24 01:01 -33.37544 -71.02412 12936 ft 339 kts 341°
2026-04-24 01:02 -33.35286 -71.03291 13619 ft 343 kts 340°
2026-04-24 01:02 -33.33009 -71.04181 14256 ft 346 kts 340°
2026-04-24 01:02 -33.30734 -71.05071 14850 ft 350 kts 340°
2026-04-24 01:02 -33.28415 -71.05981 15466 ft 353 kts 340°
2026-04-24 01:03 -33.26070 -71.06897 16065 ft 356 kts 340°
2026-04-24 01:03 -33.23701 -71.07819 16653 ft 359 kts 340°
2026-04-24 01:03 -33.21314 -71.08750 17257 ft 362 kts 340°
2026-04-24 01:03 -33.18906 -71.09689 17843 ft 365 kts 340°
2026-04-24 01:04 -33.16481 -71.10634 18435 ft 368 kts 339°
2026-04-24 01:04 -33.14037 -71.11587 18923 ft 371 kts 339°
2026-04-24 01:04 -33.11573 -71.12548 19414 ft 374 kts 339°
2026-04-24 01:04 -33.09093 -71.13515 19927 ft 376 kts 339°
2026-04-24 01:05 -33.06593 -71.14486 20414 ft 379 kts 339°
2026-04-24 01:05 -33.04077 -71.15462 20920 ft 381 kts 339°
2026-04-24 01:05 -33.01548 -71.16444 21405 ft 384 kts 339°
2026-04-24 01:05 -32.99002 -71.17436 21884 ft 386 kts 338°
2026-04-24 01:06 -32.96432 -71.18415 22354 ft 390 kts 341°
2026-04-24 01:06 -32.93740 -71.18990 22824 ft 397 kts 352°
2026-04-24 01:06 -32.90960 -71.19084 23278 ft 402 kts 355°
2026-04-24 01:06 -32.88159 -71.19133 23729 ft 404 kts 355°
2026-04-24 01:07 -32.85335 -71.19187 24103 ft 407 kts 355°
2026-04-24 01:07 -32.82502 -71.19245 24495 ft 409 kts 354°
2026-04-24 01:07 -32.79651 -71.19302 24888 ft 410 kts 354°
2026-04-24 01:07 -32.76788 -71.19358 25252 ft 412 kts 354°
2026-04-24 01:08 -32.73914 -71.19412 25615 ft 414 kts 354°
2026-04-24 01:08 -32.71023 -71.19463 25980 ft 416 kts 354°
2026-04-24 01:08 -32.68121 -71.19512 26341 ft 418 kts 354°
2026-04-24 01:08 -32.65243 -71.19560 26704 ft 420 kts 354°
2026-04-24 01:09 -32.62281 -71.19611 27051 ft 422 kts 354°
2026-04-24 01:09 -32.59376 -71.19664 27385 ft 424 kts 354°
2026-04-24 01:09 -32.56418 -71.19721 27743 ft 425 kts 354°
2026-04-24 01:09 -32.53454 -71.19779 28092 ft 427 kts 354°
2026-04-24 01:10 -32.50478 -71.19836 28433 ft 429 kts 354°
2026-04-24 01:10 -32.47487 -71.19890 28764 ft 431 kts 354°
2026-04-24 01:10 -32.44481 -71.19943 29093 ft 433 kts 354°
2026-04-24 01:10 -32.41465 -71.19997 29416 ft 435 kts 354°
2026-04-24 01:11 -32.38435 -71.20052 29751 ft 437 kts 354°
2026-04-24 01:11 -32.35393 -71.20108 30042 ft 438 kts 354°
2026-04-24 01:11 -32.32335 -71.20164 30316 ft 440 kts 354°
2026-04-24 01:11 -32.29272 -71.20219 30541 ft 442 kts 354°
2026-04-24 01:12 -32.26192 -71.20277 30778 ft 444 kts 354°
2026-04-24 01:12 -32.23100 -71.20337 30999 ft 446 kts 353°
2026-04-24 01:12 -32.19990 -71.20395 31247 ft 447 kts 353°
2026-04-24 01:12 -32.16881 -71.20448 31602 ft 446 kts 353°
2026-04-24 01:13 -32.13824 -71.20500 31954 ft 445 kts 353°
2026-04-24 01:13 -32.10732 -71.20553 32299 ft 444 kts 353°
2026-04-24 01:13 -32.07645 -71.20604 32616 ft 444 kts 353°
2026-04-24 01:13 -32.04560 -71.20656 32964 ft 443 kts 353°
2026-04-24 01:14 -32.01480 -71.20711 33294 ft 442 kts 353°
2026-04-24 01:14 -31.98404 -71.20770 33573 ft 441 kts 352°
2026-04-24 01:14 -31.95340 -71.20831 33865 ft 440 kts 352°
2026-04-24 01:14 -31.92271 -71.20893 34136 ft 440 kts 352°
2026-04-24 01:15 -31.89413 -71.20946 34395 ft 440 kts 352°
2026-04-24 01:15 -31.86290 -71.20999 34704 ft 438 kts 352°
2026-04-24 01:15 -31.83249 -71.21046 34995 ft 437 kts 351°
2026-04-24 01:15 -31.80211 -71.21095 35260 ft 436 kts 351°
2026-04-24 01:16 -31.77174 -71.21131 35526 ft 436 kts 352°
2026-04-24 01:16 -31.74138 -71.21059 35796 ft 437 kts 354°
2026-04-24 01:16 -31.71098 -71.20886 35998 ft 438 kts 354°
2026-04-24 01:16 -31.68056 -71.20654 36134 ft 438 kts 354°
2026-04-24 01:17 -31.65068 -71.20409 36155 ft 435 kts 354°
2026-04-24 01:17 -31.59056 -71.19960 36155 ft 432 kts 353°
2026-04-24 01:18 -31.53058 -71.19592 36155 ft 431 kts 353°
2026-04-24 01:18 -31.47074 -71.19258 36112 ft 431 kts 353°
2026-04-24 01:19 -31.41087 -71.18912 36143 ft 431 kts 352°
2026-04-24 01:19 -31.35105 -71.18552 36145 ft 430 kts 353°
2026-04-24 01:20 -31.29123 -71.18181 36139 ft 430 kts 353°
2026-04-24 01:20 -31.23180 -71.17813 36142 ft 430 kts 353°
2026-04-24 01:21 -31.17209 -71.17452 36100 ft 430 kts 352°
2026-04-24 01:21 -31.11237 -71.17098 36119 ft 430 kts 352°
2026-04-24 01:22 -31.05268 -71.16740 36124 ft 430 kts 352°
2026-04-24 01:22 -30.99297 -71.16381 36128 ft 429 kts 352°
2026-04-24 01:23 -30.93335 -71.16024 36076 ft 429 kts 351°
2026-04-24 01:23 -30.87392 -71.15666 36107 ft 427 kts 351°
2026-04-24 01:24 -30.81460 -71.15307 36115 ft 426 kts 351°
2026-04-24 01:24 -30.75539 -71.14946 36120 ft 426 kts 351°
2026-04-24 01:25 -30.69669 -71.14593 36122 ft 425 kts 351°
2026-04-24 01:25 -30.63760 -71.14241 36090 ft 424 kts 349°
2026-04-24 01:26 -30.57868 -71.13883 36118 ft 423 kts 349°
2026-04-24 01:26 -30.51991 -71.13535 36125 ft 422 kts 349°
2026-04-24 01:27 -30.46116 -71.13191 36128 ft 422 kts 349°
2026-04-24 01:27 -30.40260 -71.12843 36126 ft 421 kts 349°
2026-04-24 01:28 -30.34418 -71.12499 36107 ft 420 kts 348°
2026-04-24 01:28 -30.28592 -71.12159 36122 ft 419 kts 348°
2026-04-24 01:29 -30.22776 -71.11801 36126 ft 419 kts 349°
2026-04-24 01:29 -30.16957 -71.11220 36130 ft 422 kts 351°
2026-04-24 01:30 -30.11142 -71.10529 36071 ft 422 kts 350°
2026-04-24 01:30 -30.05314 -71.09855 36092 ft 420 kts 350°
2026-04-24 01:31 -29.99491 -71.09227 36112 ft 420 kts 349°
2026-04-24 01:31 -29.93685 -71.08611 36117 ft 419 kts 349°
2026-04-24 01:32 -29.87884 -71.07995 36117 ft 418 kts 349°
2026-04-24 01:32 -29.82090 -71.07381 36117 ft 418 kts 349°
2026-04-24 01:33 -29.76296 -71.06764 36111 ft 418 kts 349°
2026-04-24 01:33 -29.70507 -71.06142 36116 ft 418 kts 350°
2026-04-24 01:34 -29.64719 -71.05517 36109 ft 418 kts 349°
2026-04-24 01:34 -29.58928 -71.04897 36109 ft 417 kts 349°
2026-04-24 01:35 -29.53151 -71.04279 36088 ft 417 kts 349°
2026-04-24 01:35 -29.47408 -71.03671 36106 ft 416 kts 349°
2026-04-24 01:36 -29.41634 -71.02985 36121 ft 420 kts 351°
2026-04-24 01:36 -29.35813 -71.02057 36120 ft 423 kts 352°
2026-04-24 01:37 -29.30982 -71.01243 36118 ft 422 kts 352°
2026-04-24 01:37 -29.25181 -71.00332 36087 ft 418 kts 350°
2026-04-24 01:38 -29.19434 -70.99744 36105 ft 411 kts 348°
2026-04-24 01:38 -29.13730 -70.99302 36109 ft 410 kts 347°
2026-04-24 01:39 -29.08031 -70.98825 36109 ft 411 kts 348°
2026-04-24 01:39 -29.02321 -70.98295 36116 ft 412 kts 348°
2026-04-24 01:40 -28.96610 -70.97741 36080 ft 412 kts 348°
2026-04-24 01:40 -28.90904 -70.97196 36090 ft 412 kts 348°
2026-04-24 01:41 -28.85190 -70.96667 36101 ft 412 kts 348°
2026-04-24 01:41 -28.79480 -70.96128 36107 ft 412 kts 348°
2026-04-24 01:42 -28.73800 -70.95597 36105 ft 412 kts 348°
2026-04-24 01:42 -28.68094 -70.95065 36073 ft 411 kts 348°
2026-04-24 01:43 -28.62394 -70.94543 36099 ft 411 kts 349°
2026-04-24 01:43 -28.56686 -70.94016 36103 ft 412 kts 349°
2026-04-24 01:44 -28.50986 -70.93485 36104 ft 411 kts 349°
2026-04-24 01:44 -28.45283 -70.92929 36105 ft 412 kts 349°
2026-04-24 01:45 -28.39569 -70.92324 36077 ft 413 kts 350°
2026-04-24 01:45 -28.33848 -70.91707 36087 ft 412 kts 349°
2026-04-24 01:46 -28.28141 -70.91110 36094 ft 412 kts 349°
2026-04-24 01:46 -28.22475 -70.90526 36106 ft 412 kts 349°
2026-04-24 01:47 -28.16768 -70.89922 36085 ft 412 kts 350°
2026-04-24 01:47 -28.11055 -70.89309 36068 ft 412 kts 350°
2026-04-24 01:48 -28.05345 -70.88700 36081 ft 412 kts 350°
2026-04-24 01:48 -27.99631 -70.88092 36089 ft 412 kts 350°
2026-04-24 01:49 -27.93921 -70.87484 36095 ft 412 kts 350°
2026-04-24 01:49 -27.88221 -70.86887 36094 ft 411 kts 350°
2026-04-24 01:50 -27.82561 -70.86293 36080 ft 411 kts 351°
2026-04-24 01:50 -27.76851 -70.85683 36093 ft 412 kts 351°
2026-04-24 01:51 -27.71153 -70.85074 36099 ft 411 kts 351°
2026-04-24 01:51 -27.65450 -70.84473 36102 ft 411 kts 351°
2026-04-24 01:52 -27.59752 -70.83876 36108 ft 411 kts 351°
2026-04-24 01:52 -27.54043 -70.83277 36078 ft 413 kts 351°
2026-04-24 01:53 -27.48309 -70.82676 36088 ft 414 kts 351°
2026-04-24 01:53 -27.42574 -70.82069 36102 ft 414 kts 351°
2026-04-24 01:54 -27.36835 -70.81462 36125 ft 414 kts 351°
2026-04-24 01:54 -27.31090 -70.80854 36117 ft 414 kts 351°
2026-04-24 01:55 -27.25348 -70.80251 36089 ft 414 kts 352°
2026-04-24 01:55 -27.19645 -70.79656 36094 ft 415 kts 352°
2026-04-24 01:56 -27.13900 -70.79056 36096 ft 415 kts 352°
2026-04-24 01:56 -27.08147 -70.78462 36100 ft 415 kts 352°
2026-04-24 01:57 -27.02397 -70.77862 36105 ft 415 kts 352°
2026-04-24 01:57 -26.96639 -70.77253 36110 ft 416 kts 352°
2026-04-24 01:58 -26.90877 -70.76648 36111 ft 416 kts 352°
2026-04-24 01:58 -26.85122 -70.76051 36111 ft 415 kts 352°
2026-04-24 01:59 -26.79363 -70.75451 36115 ft 416 kts 352°
2026-04-24 01:59 -26.73609 -70.74859 36116 ft 415 kts 352°
2026-04-24 02:00 -26.67849 -70.74268 36071 ft 416 kts 352°
2026-04-24 02:00 -26.62061 -70.73491 36084 ft 422 kts 355°
2026-04-24 02:01 -26.56284 -70.72441 36096 ft 424 kts 356°
2026-04-24 02:01 -26.50467 -70.71361 36094 ft 424 kts 356°
2026-04-24 02:02 -26.44646 -70.70347 36096 ft 422 kts 355°
2026-04-24 02:02 -26.38852 -70.69684 36068 ft 416 kts 352°
2026-04-24 02:03 -26.30205 -70.69081 36081 ft 415 kts 352°
2026-04-24 02:03 -26.24436 -70.68613 36084 ft 416 kts 352°
2026-04-24 02:04 -26.18656 -70.68096 36090 ft 417 kts 352°
2026-04-24 02:04 -26.12875 -70.67577 36054 ft 417 kts 353°
2026-04-24 02:05 -26.07133 -70.67062 36068 ft 417 kts 353°
2026-04-24 02:05 -26.01349 -70.66547 36072 ft 417 kts 353°
2026-04-24 02:06 -25.95566 -70.66043 36079 ft 417 kts 353°
2026-04-24 02:06 -25.89784 -70.65539 36088 ft 417 kts 353°
2026-04-24 02:07 -25.83997 -70.65042 36062 ft 417 kts 353°
2026-04-24 02:07 -25.78214 -70.64540 36067 ft 417 kts 353°
2026-04-24 02:08 -25.72429 -70.64030 36069 ft 417 kts 353°
2026-04-24 02:08 -25.66683 -70.63528 36072 ft 417 kts 353°
2026-04-24 02:09 -25.60904 -70.63031 36075 ft 417 kts 353°
2026-04-24 02:09 -25.55114 -70.62523 36078 ft 417 kts 353°
2026-04-24 02:10 -25.49328 -70.62015 36046 ft 417 kts 354°
2026-04-24 02:10 -25.43536 -70.61514 36054 ft 417 kts 354°
2026-04-24 02:11 -25.37746 -70.61020 36058 ft 418 kts 354°
2026-04-24 02:11 -25.31948 -70.60518 36065 ft 418 kts 354°
2026-04-24 02:12 -25.26146 -70.60007 36065 ft 418 kts 354°
2026-04-24 02:12 -25.20351 -70.59510 36041 ft 418 kts 354°
2026-04-24 02:13 -25.14578 -70.59016 35913 ft 420 kts 354°
2026-04-24 02:13 -25.11672 -70.58768 35672 ft 419 kts 354°
2026-04-24 02:13 -25.08765 -70.58520 35436 ft 418 kts 354°
2026-04-24 02:14 -25.05880 -70.58268 35106 ft 414 kts 354°
2026-04-24 02:14 -25.03014 -70.58018 34616 ft 412 kts 354°
2026-04-24 02:14 -25.00173 -70.57776 34119 ft 410 kts 354°
2026-04-24 02:14 -24.97326 -70.57533 33585 ft 408 kts 354°
2026-04-24 02:15 -24.94506 -70.57288 33073 ft 405 kts 355°
2026-04-24 02:15 -24.91712 -70.57043 32614 ft 401 kts 355°
2026-04-24 02:15 -24.88939 -70.56804 32139 ft 399 kts 354°
2026-04-24 02:15 -24.86180 -70.56566 31667 ft 396 kts 354°
2026-04-24 02:16 -24.83437 -70.56335 31203 ft 394 kts 354°
2026-04-24 02:16 -24.80702 -70.56103 30739 ft 392 kts 354°
2026-04-24 02:16 -24.77995 -70.55945 30277 ft 388 kts 351°
2026-04-24 02:16 -24.75307 -70.55914 29773 ft 384 kts 349°
2026-04-24 02:17 -24.72693 -70.55960 29333 ft 379 kts 349°
2026-04-24 02:17 -24.70073 -70.56031 28900 ft 375 kts 349°
2026-04-24 02:17 -24.67473 -70.56097 28473 ft 372 kts 349°
2026-04-24 02:17 -24.64890 -70.56146 28031 ft 370 kts 351°
2026-04-24 02:18 -24.62331 -70.56178 27643 ft 366 kts 351°
2026-04-24 02:18 -24.59793 -70.56196 27216 ft 363 kts 351°
2026-04-24 02:18 -24.57276 -70.56205 26799 ft 361 kts 352°
2026-04-24 02:18 -24.54773 -70.56214 26375 ft 359 kts 352°
2026-04-24 02:19 -24.52283 -70.56225 25945 ft 358 kts 352°
2026-04-24 02:19 -24.49797 -70.56240 25511 ft 356 kts 352°
2026-04-24 02:19 -24.47320 -70.56255 25068 ft 355 kts 353°
2026-04-24 02:19 -24.44853 -70.56270 24626 ft 354 kts 353°
2026-04-24 02:20 -24.42394 -70.56286 24171 ft 353 kts 353°
2026-04-24 02:20 -24.39937 -70.56305 23719 ft 353 kts 353°
2026-04-24 02:20 -24.37480 -70.56323 23200 ft 352 kts 354°
2026-04-24 02:20 -24.35037 -70.56339 22731 ft 350 kts 354°
2026-04-24 02:21 -24.32605 -70.56354 22307 ft 348 kts 354°
2026-04-24 02:21 -24.30194 -70.56367 21868 ft 346 kts 354°
2026-04-24 02:21 -24.27793 -70.56381 21431 ft 344 kts 354°
2026-04-24 02:21 -24.25402 -70.56395 21003 ft 343 kts 355°
2026-04-24 02:22 -24.23051 -70.56410 20581 ft 342 kts 355°
2026-04-24 02:22 -24.20648 -70.56418 20151 ft 341 kts 356°
2026-04-24 02:22 -24.18276 -70.56364 19727 ft 341 kts 358°
2026-04-24 02:22 -24.15932 -70.56269 19311 ft 341 kts 359°
2026-04-24 02:23 -24.13562 -70.56157 18888 ft 341 kts 359°
2026-04-24 02:23 -24.11192 -70.56043 18471 ft 342 kts 359°
2026-04-24 02:23 -24.08814 -70.55935 18007 ft 342 kts 359°
2026-04-24 02:23 -24.06441 -70.55834 17586 ft 341 kts 359°
2026-04-24 02:24 -24.04077 -70.55742 17174 ft 339 kts 359°
2026-04-24 02:24 -24.01721 -70.55651 16763 ft 338 kts 359°
2026-04-24 02:24 -23.99370 -70.55561 16361 ft 337 kts 359°
2026-04-24 02:24 -23.97028 -70.55473 15962 ft 336 kts 359°
2026-04-24 02:25 -23.94694 -70.55383 15561 ft 336 kts
2026-04-24 02:25 -23.92359 -70.55292 15163 ft 335 kts
2026-04-24 02:25 -23.90037 -70.55201 14765 ft 334 kts 360°
2026-04-24 02:25 -23.87723 -70.55111 14365 ft 334 kts 359°
2026-04-24 02:26 -23.85400 -70.55022 13972 ft 334 kts
2026-04-24 02:26 -23.83081 -70.54934 13535 ft 333 kts
2026-04-24 02:26 -23.80768 -70.54843 13124 ft 331 kts
2026-04-24 02:26 -23.78474 -70.54751 12720 ft 329 kts
2026-04-24 02:27 -23.76189 -70.54661 12311 ft 328 kts
2026-04-24 02:27 -23.73917 -70.54571 11912 ft 326 kts
2026-04-24 02:27 -23.71679 -70.54483 11509 ft 325 kts
2026-04-24 02:27 -23.69420 -70.54396 11022 ft 324 kts
2026-04-24 02:28 -23.67185 -70.54313 10613 ft 318 kts
2026-04-24 02:28 -23.65008 -70.54230 10370 ft 308 kts
2026-04-24 02:28 -23.62901 -70.54147 10044 ft 300 kts
2026-04-24 02:28 -23.60819 -70.54067 9426 ft 298 kts
2026-04-24 02:29 -23.58766 -70.53987 8973 ft 292 kts
2026-04-24 02:29 -23.56751 -70.53907 8569 ft 287 kts
2026-04-24 02:29 -23.54770 -70.53829 8165 ft 283 kts
2026-04-24 02:29 -23.52814 -70.53753 7770 ft 282 kts
2026-04-24 02:30 -23.50849 -70.53679 7346 ft 283 kts
2026-04-24 02:30 -23.48877 -70.53540 6944 ft 285 kts
2026-04-24 02:30 -23.46897 -70.53344 6519 ft 286 kts
2026-04-24 02:30 -23.44912 -70.53124 6069 ft 288 kts
2026-04-24 02:31 -23.42915 -70.52899 5646 ft 288 kts
2026-04-24 02:31 -23.40965 -70.52684 5559 ft 275 kts
2026-04-24 02:31 -23.39132 -70.52487 5462 ft 263 kts
2026-04-24 02:31 -23.37348 -70.52300 5343 ft 253 kts
2026-04-24 02:32 -23.35626 -70.52124 5246 ft 244 kts
2026-04-24 02:32 -23.33968 -70.51955 5145 ft 234 kts
2026-04-24 02:32 -23.32369 -70.51778 5036 ft 229 kts
2026-04-24 02:32 -23.30873 -70.51177 4714 ft 232 kts 35°
2026-04-24 02:33 -23.29726 -70.49977 4380 ft 227 kts 59°
2026-04-24 02:33 -23.29117 -70.48449 4084 ft 216 kts 82°
2026-04-24 02:33 -23.29065 -70.46862 3803 ft 207 kts 102°
2026-04-24 02:33 -23.29505 -70.45422 3559 ft 196 kts 120°
2026-04-24 02:34 -23.30329 -70.44270 3282 ft 192 kts 139°
2026-04-24 02:34 -23.31435 -70.43491 3010 ft 189 kts 157°
2026-04-24 02:34 -23.32258 -70.43212 2841 ft 186 kts 169°
2026-04-24 02:34 -23.33533 -70.43166 2587 ft 181 kts 186°
2026-04-24 02:35 -23.34746 -70.43324 2350 ft 170 kts 186°
2026-04-24 02:35 -23.35888 -70.43465 2095 ft 161 kts 186°
2026-04-24 02:35 -23.36953 -70.43593 1878 ft 148 kts 185°
2026-04-24 02:35 -23.38267 -70.43750 1591 ft 140 kts 186°
2026-04-24 02:36 -23.38917 -70.43827 1450 ft 138 kts 186°
2026-04-24 02:36 -23.39866 -70.43941 1248 ft 136 kts 187°
2026-04-24 02:36 -23.40799 -70.44055 1046 ft 134 kts 186°
2026-04-24 02:36 -23.41733 -70.44170 848 ft 135 kts 187°
2026-04-24 02:37 -23.42661 -70.44283 642 ft 134 kts 187°
2026-04-24 02:37 -23.43568 -70.44394 431 ft 130 kts 187°
2026-04-24 02:37 -23.44348 -70.44493 380 ft 90 kts 186°
2026-04-24 02:37 -23.44817 -70.44548 368 ft 50 kts 187°
2026-04-24 02:38 -23.45063 -70.44580 364 ft 22 kts 187°
2026-04-24 02:38 -23.45177 -70.44593 363 ft 12 kts 184°
2026-04-24 02:38 -23.45218 -70.44551 361 ft 7 kts 95°
2026-04-24 02:38 -23.45221 -70.44500 361 ft 6 kts 95°
2026-04-24 02:39 -23.45225 -70.44458 361 ft 5 kts 95°
2026-04-24 02:39 -23.45219 -70.44419 361 ft 7 kts 50°
2026-04-24 02:39 -23.45178 -70.44403 362 ft 6 kts
2026-04-24 02:39 -23.45138 -70.44398 362 ft 9 kts
2026-04-24 02:40 -23.45060 -70.44389 364 ft 11 kts
2026-04-24 02:40 -23.44999 -70.44381 365 ft 6 kts
2026-04-24 02:40 -23.44985 -70.44345 366 ft 8 kts 95°
2026-04-24 02:40 -23.44985 -70.44283 364 ft 7 kts 64°
2026-04-24 02:41 -23.44948 -70.44265 365 ft 5 kts 10°
2026-04-24 02:41 -23.44919 -70.44260 367 ft 3 kts
2026-04-24 02:41 -23.44896 -70.44257 369 ft 5 kts
2026-04-24 02:41 -23.44869 -70.44245 367 ft 5 kts 50°
2026-04-24 02:42 -23.44870 -70.44197 368 ft 5 kts 96°
2026-04-24 02:42 -23.44872 -70.44174 366 ft 1 kts 96°
2026-04-24 02:42 -23.44873 -70.44168 366 ft 1 kts 96°
2026-04-24 02:42 -23.44873 -70.44165 366 ft 0 kts 96°